Time,TemperatureF,DewpointF,PressureIn,WindDirection,WindDirectionDegrees,WindSpeedMPH,WindSpeedGustMPH,Humidity,HourlyPrecipIn,Conditions,Clouds,dailyrainin,SoftwareType,DateUTC
2013-09-23 00:02:00,81.0,77.0,29.86,SW,222,0.0,-999.0,87,-99.99,,,0.00,weatherlink.com 1.10,2013-09-23 04:02:00,
2013-09-23 00:17:00,81.0,77.0,29.86,West,267,0.0,-999.0,87,-99.99,,,0.00,weatherlink.com 1.10,2013-09-23 04:17:00,
2013-09-23 00:32:00,80.7,77.0,29.86,West,267,0.0,-999.0,88,-99.99,,,0.00,weatherlink.com 1.10,2013-09-23 04:32:00,
2013-09-23 00:47:00,80.1,77.0,29.86,West,267,0.0,-999.0,89,-99.99,,,0.00,weatherlink.com 1.10,2013-09-23 04:47:00,
2013-09-23 01:02:00,79.8,77.0,29.86,West,259,0.0,-999.0,90,-99.99,,,0.00,weatherlink.com 1.10,2013-09-23 05:02:00,
2013-09-23 01:17:00,79.8,77.0,29.86,West,259,0.0,-999.0,91,-99.99,,,0.00,weatherlink.com 1.10,2013-09-23 05:17:00,
2013-09-23 01:32:00,79.5,77.0,29.86,West,259,0.0,-999.0,91,-99.99,,,0.00,weatherlink.com 1.10,2013-09-23 05:32:00,
2013-09-23 01:47:00,79.3,77.0,29.86,WSW,257,0.0,-999.0,92,-99.99,,,0.00,weatherlink.com 1.10,2013-09-23 05:47:00,
2013-09-23 02:02:00,79.1,77.0,29.86,WSW,257,0.0,-999.0,92,-99.99,,,0.00,weatherlink.com 1.10,2013-09-23 06:02:00,
2013-09-23 02:17:00,78.9,77.0,29.86,WSW,257,0.0,-999.0,93,-99.99,,,0.00,weatherlink.com 1.10,2013-09-23 06:17:00,
2013-09-23 02:32:00,78.8,77.0,29.86,WSW,257,0.0,-999.0,93,-99.99,,,0.00,weatherlink.com 1.10,2013-09-23 06:32:00,
2013-09-23 02:47:00,78.8,77.0,29.85,WSW,249,0.0,-999.0,93,-99.99,,,0.00,weatherlink.com 1.10,2013-09-23 06:47:00,
2013-09-23 03:02:00,78.6,77.0,29.85,WSW,249,0.0,-999.0,93,-99.99,,,0.00,weatherlink.com 1.10,2013-09-23 07:02:00,
2013-09-23 03:17:00,78.5,77.0,29.85,WSW,249,0.0,-999.0,94,-99.99,,,0.00,weatherlink.com 1.10,2013-09-23 07:17:00,
2013-09-23 03:32:00,78.4,77.0,29.85,WSW,249,0.0,-999.0,94,-99.99,,,0.00,weatherlink.com 1.10,2013-09-23 07:32:00,
2013-09-23 03:47:00,78.4,77.0,29.85,WSW,248,0.0,-999.0,94,-99.99,,,0.00,weatherlink.com 1.10,2013-09-23 07:47:00,
2013-09-23 04:02:00,78.6,77.0,29.85,WSW,249,0.0,-999.0,95,-99.99,,,0.00,weatherlink.com 1.10,2013-09-23 08:02:00,
2013-09-23 04:17:00,78.6,77.0,29.85,SSE,165,0.0,-999.0,94,-99.99,,,0.00,weatherlink.com 1.10,2013-09-23 08:17:00,
2013-09-23 04:32:00,78.6,77.0,29.85,South,190,1.0,-999.0,95,-99.99,,,0.00,weatherlink.com 1.10,2013-09-23 08:32:00,
2013-09-23 04:47:00,78.5,77.0,29.85,SSW,196,0.0,-999.0,95,-99.99,,,0.00,weatherlink.com 1.10,2013-09-23 08:47:00,
2013-09-23 05:02:00,78.4,77.0,29.85,SSW,207,0.0,-999.0,94,-99.99,,,0.00,weatherlink.com 1.10,2013-09-23 09:02:00,
2013-09-23 05:17:00,78.2,76.0,29.85,SSW,207,0.0,-999.0,94,-99.99,,,0.00,weatherlink.com 1.10,2013-09-23 09:17:00,
2013-09-23 05:32:00,77.8,76.0,29.85,SSW,207,0.0,-999.0,94,-99.99,,,0.00,weatherlink.com 1.10,2013-09-23 09:32:00,
2013-09-23 05:47:00,77.6,76.0,29.85,SSW,207,0.0,-999.0,95,-99.99,,,0.00,weatherlink.com 1.10,2013-09-23 09:47:00,
2013-09-23 06:02:00,77.5,76.0,29.86,SSW,207,0.0,-999.0,95,-99.99,,,0.00,weatherlink.com 1.10,2013-09-23 10:02:00,
2013-09-23 06:17:00,77.3,76.0,29.86,SSW,207,0.0,-999.0,95,-99.99,,,0.00,weatherlink.com 1.10,2013-09-23 10:17:00,
2013-09-23 06:32:00,77.2,76.0,29.86,SSW,207,0.0,-999.0,95,-99.99,,,0.00,weatherlink.com 1.10,2013-09-23 10:32:00,
2013-09-23 06:47:00,77.2,76.0,29.87,SSW,207,0.0,-999.0,96,-99.99,,,0.00,weatherlink.com 1.10,2013-09-23 10:47:00,
2013-09-23 07:02:00,77.0,76.0,29.88,SSW,207,0.0,-999.0,96,-99.99,,,0.00,weatherlink.com 1.10,2013-09-23 11:02:00,
2013-09-23 07:18:00,77.3,76.0,29.88,SSW,207,0.0,-999.0,96,-99.99,,,0.00,weatherlink.com 1.10,2013-09-23 11:18:00,
2013-09-23 07:33:00,77.7,77.0,29.89,SSW,207,0.0,-999.0,96,-99.99,,,0.00,weatherlink.com 1.10,2013-09-23 11:33:00,
2013-09-23 07:48:00,77.8,77.0,29.90,SSW,207,0.0,-999.0,96,-99.99,,,0.00,weatherlink.com 1.10,2013-09-23 11:48:00,
2013-09-23 08:03:00,78.2,77.0,29.90,SE,146,0.0,-999.0,96,-99.99,,,0.00,weatherlink.com 1.10,2013-09-23 12:03:00,
2013-09-23 08:18:00,79.6,78.0,29.90,SSE,165,0.0,-999.0,95,-99.99,,,0.00,weatherlink.com 1.10,2013-09-23 12:18:00,
2013-09-23 08:33:00,80.4,78.0,29.90,SSE,163,1.0,-999.0,92,-99.99,,,0.00,weatherlink.com 1.10,2013-09-23 12:33:00,
2013-09-23 08:48:00,81.7,78.0,29.91,SSE,161,1.0,-999.0,88,-99.99,,,0.00,weatherlink.com 1.10,2013-09-23 12:48:00,
2013-09-23 09:03:00,83.3,78.0,29.91,SSE,148,0.0,-999.0,85,-99.99,,,0.00,weatherlink.com 1.10,2013-09-23 13:03:00,
2013-09-23 09:18:00,85.5,79.0,29.91,SSW,196,3.0,-999.0,81,-99.99,,,0.00,weatherlink.com 1.10,2013-09-23 13:18:00,
2013-09-23 09:33:00,86.3,79.0,29.92,SSW,210,1.0,-999.0,79,-99.99,,,0.00,weatherlink.com 1.10,2013-09-23 13:33:00,
2013-09-23 09:48:00,87.3,79.0,29.91,SW,227,0.0,-999.0,77,-99.99,,,0.00,weatherlink.com 1.10,2013-09-23 13:48:00,
2013-09-23 10:03:00,87.7,80.0,29.92,SW,217,2.0,-999.0,77,-99.99,,,0.00,weatherlink.com 1.10,2013-09-23 14:03:00,
2013-09-23 10:18:00,87.8,79.0,29.92,South,182,1.0,-999.0,74,-99.99,,,0.00,weatherlink.com 1.10,2013-09-23 14:18:00,
2013-09-23 10:33:00,87.5,79.0,29.92,SSW,206,1.0,-999.0,76,-99.99,,,0.00,weatherlink.com 1.10,2013-09-23 14:33:00,
2013-09-23 10:48:00,87.5,79.0,29.92,SSW,194,0.0,-999.0,76,-99.99,,,0.00,weatherlink.com 1.10,2013-09-23 14:48:00,
2013-09-23 11:03:00,88.3,79.0,29.92,SSW,210,1.0,-999.0,73,-99.99,,,0.00,weatherlink.com 1.10,2013-09-23 15:03:00,
2013-09-23 11:18:00,88.2,78.0,29.92,SW,217,1.0,-999.0,72,-99.99,,,0.00,weatherlink.com 1.10,2013-09-23 15:18:00,
2013-09-23 11:33:00,87.8,78.0,29.92,WSW,246,0.0,-999.0,72,-99.99,,,0.00,weatherlink.com 1.10,2013-09-23 15:33:00,
2013-09-23 11:48:00,87.8,78.0,29.91,WNW,287,0.0,-999.0,72,-99.99,,,0.00,weatherlink.com 1.10,2013-09-23 15:48:00,
2013-09-23 12:03:00,87.7,78.0,29.92,SSE,160,2.0,-999.0,72,-99.99,,,0.00,weatherlink.com 1.10,2013-09-23 16:03:00,
2013-09-23 12:18:00,87.5,78.0,29.92,West,263,0.0,-999.0,73,-99.99,,,0.00,weatherlink.com 1.10,2013-09-23 16:18:00,
2013-09-23 12:33:00,87.1,79.0,29.92,South,180,0.0,-999.0,76,-99.99,,,0.00,weatherlink.com 1.10,2013-09-23 16:33:00,
2013-09-23 12:48:00,86.1,78.0,29.93,SSW,198,0.0,-999.0,76,-99.99,,,0.00,weatherlink.com 1.10,2013-09-23 16:48:00,
2013-09-23 13:03:00,82.6,78.0,29.92,SW,232,0.0,-999.0,85,-99.99,,,0.02,weatherlink.com 1.10,2013-09-23 17:03:00,
2013-09-23 13:18:00,79.9,76.0,29.91,NW,326,2.0,-999.0,88,-99.99,,,0.02,weatherlink.com 1.10,2013-09-23 17:18:00,
2013-09-23 13:33:00,80.2,76.0,29.91,NNE,32,0.0,-999.0,88,-99.99,,,0.02,weatherlink.com 1.10,2013-09-23 17:33:00,
2013-09-23 13:48:00,82.7,78.0,29.91,NNE,30,0.0,-999.0,84,-99.99,,,0.02,weatherlink.com 1.10,2013-09-23 17:48:00,
2013-09-23 14:03:00,84.4,78.0,29.91,WNW,288,0.0,-999.0,80,-99.99,,,0.02,weatherlink.com 1.10,2013-09-23 18:03:00,
2013-09-23 14:18:00,86.0,78.0,29.91,West,279,0.0,-999.0,78,-99.99,,,0.02,weatherlink.com 1.10,2013-09-23 18:18:00,
2013-09-23 14:33:00,86.4,78.0,29.91,WSW,257,0.0,-999.0,77,-99.99,,,0.02,weatherlink.com 1.10,2013-09-23 18:33:00,
2013-09-23 14:48:00,85.8,75.0,29.92,South,178,11.0,-999.0,71,-99.99,,,0.02,weatherlink.com 1.10,2013-09-23 18:48:00,
2013-09-23 15:03:00,80.4,75.0,29.92,SSE,150,2.0,-999.0,84,-99.99,,,0.06,weatherlink.com 1.10,2013-09-23 19:03:00,
2013-09-23 15:18:00,78.5,75.0,29.91,South,183,2.0,-999.0,89,-99.99,,,0.07,weatherlink.com 1.10,2013-09-23 19:18:00,
2013-09-23 15:33:00,78.0,75.0,29.91,SSE,155,4.0,-999.0,91,-99.99,,,0.12,weatherlink.com 1.10,2013-09-23 19:33:00,
2013-09-23 15:48:00,77.5,75.0,29.91,SSW,205,2.0,-999.0,92,-99.99,,,0.13,weatherlink.com 1.10,2013-09-23 19:48:00,
2013-09-23 16:03:00,77.5,75.0,29.91,South,170,0.0,-999.0,93,-99.99,,,0.13,weatherlink.com 1.10,2013-09-23 20:03:00,
2013-09-23 16:18:00,77.9,76.0,29.90,South,169,0.0,-999.0,93,-99.99,,,0.13,weatherlink.com 1.10,2013-09-23 20:18:00,
2013-09-23 16:33:00,78.5,77.0,29.90,SSE,150,0.0,-999.0,94,-99.99,,,0.14,weatherlink.com 1.10,2013-09-23 20:33:00,
2013-09-23 16:48:00,79.0,77.0,29.89,SSW,194,0.0,-999.0,93,-99.99,,,0.14,weatherlink.com 1.10,2013-09-23 20:48:00,
2013-09-23 17:03:00,79.3,77.0,29.89,SSE,153,0.0,-999.0,92,-99.99,,,0.14,weatherlink.com 1.10,2013-09-23 21:03:00,
2013-09-23 17:18:00,80.0,77.0,29.89,SSE,163,0.0,-999.0,91,-99.99,,,0.14,weatherlink.com 1.10,2013-09-23 21:18:00,
2013-09-23 18:03:00,81.0,77.0,29.91,SSE,149,0.0,-999.0,87,-99.99,,,0.14,weatherlink.com 1.10,2013-09-23 22:03:00,
2013-09-23 18:18:00,80.9,77.0,29.92,SE,136,0.0,-999.0,88,-99.99,,,0.14,weatherlink.com 1.10,2013-09-23 22:18:00,
2013-09-23 18:33:00,80.7,77.0,29.92,SSE,167,1.0,-999.0,88,-99.99,,,0.14,weatherlink.com 1.10,2013-09-23 22:33:00,
2013-09-23 18:48:00,80.5,77.0,29.92,SSE,148,0.0,-999.0,88,-99.99,,,0.14,weatherlink.com 1.10,2013-09-23 22:48:00,
2013-09-23 19:03:00,80.3,77.0,29.92,SE,138,0.0,-999.0,88,-99.99,,,0.14,weatherlink.com 1.10,2013-09-23 23:03:00,
2013-09-23 19:18:00,80.1,77.0,29.93,SSE,150,0.0,-999.0,89,-99.99,,,0.14,weatherlink.com 1.10,2013-09-23 23:18:00,
2013-09-23 19:33:00,80.0,77.0,29.93,SE,140,0.0,-999.0,90,-99.99,,,0.14,weatherlink.com 1.10,2013-09-23 23:33:00,
2013-09-23 19:48:00,79.8,77.0,29.93,SE,128,0.0,-999.0,90,-99.99,,,0.14,weatherlink.com 1.10,2013-09-23 23:48:00,
2013-09-23 20:03:00,79.7,77.0,29.94,SE,128,0.0,-999.0,90,-99.99,,,0.14,weatherlink.com 1.10,2013-09-24 00:03:00,
2013-09-23 20:18:00,79.6,77.0,29.94,SE,128,0.0,-999.0,91,-99.99,,,0.14,weatherlink.com 1.10,2013-09-24 00:18:00,
2013-09-23 20:33:00,79.6,77.0,29.95,SE,128,0.0,-999.0,91,-99.99,,,0.14,weatherlink.com 1.10,2013-09-24 00:33:00,
2013-09-23 20:48:00,79.5,77.0,29.95,SE,128,0.0,-999.0,91,-99.99,,,0.14,weatherlink.com 1.10,2013-09-24 00:48:00,
2013-09-23 21:03:00,79.6,77.0,29.96,SE,128,0.0,-999.0,91,-99.99,,,0.14,weatherlink.com 1.10,2013-09-24 01:03:00,
2013-09-23 21:18:00,79.7,77.0,29.96,SE,130,1.0,-999.0,92,-99.99,,,0.15,weatherlink.com 1.10,2013-09-24 01:18:00,
2013-09-23 21:34:00,79.2,77.0,29.96,West,279,0.0,-999.0,93,-99.99,,,0.15,weatherlink.com 1.10,2013-09-24 01:34:00,
2013-09-23 21:49:00,78.6,77.0,29.96,SSW,202,0.0,-999.0,94,-99.99,,,0.21,weatherlink.com 1.10,2013-09-24 01:49:00,
2013-09-23 22:04:00,78.5,77.0,29.96,SSE,161,0.0,-999.0,94,-99.99,,,0.21,weatherlink.com 1.10,2013-09-24 02:04:00,
2013-09-23 22:19:00,78.2,77.0,29.95,SSE,161,0.0,-999.0,95,-99.99,,,0.21,weatherlink.com 1.10,2013-09-24 02:19:00,
2013-09-23 22:34:00,78.2,77.0,29.95,SSE,163,0.0,-999.0,95,-99.99,,,0.21,weatherlink.com 1.10,2013-09-24 02:34:00,
2013-09-23 22:49:00,78.1,77.0,29.95,SSE,163,0.0,-999.0,95,-99.99,,,0.21,weatherlink.com 1.10,2013-09-24 02:49:00,
2013-09-23 23:04:00,78.1,77.0,29.96,SSE,163,0.0,-999.0,95,-99.99,,,0.22,weatherlink.com 1.10,2013-09-24 03:04:00,
2013-09-23 23:19:00,78.1,77.0,29.96,SSE,163,0.0,-999.0,96,-99.99,,,0.22,weatherlink.com 1.10,2013-09-24 03:19:00,
2013-09-23 23:34:00,78.1,77.0,29.96,SSE,163,0.0,-999.0,96,-99.99,,,0.22,weatherlink.com 1.10,2013-09-24 03:34:00,
2013-09-23 23:49:00,78.1,77.0,29.96,SSE,163,0.0,-999.0,96,-99.99,,,0.22,weatherlink.com 1.10,2013-09-24 03:49:00,